Dewpoint
74 71 71 69 71 70 69 67 59 61 60 51 50 51 52 58 55 57 58 61 59 60 60 59 58 58 59 57 61 58 60 58 61 55 56 66 71 70 72 71 72 72 73 73 73 74 75 76 76 76 76 76 76 76 76 77 77 77 76 77 77 77 77 77 77 77 77 77 77 77 77 76 76 76 76 76 76 75 75 76 75 75 75 74 75 74 74 74 74 74 74 74 74 74 73 73 74
72 71 70 70 72 68 64 65 60 58 55 49 48 51 52 55 56 53 55 58 57 60 59 58 58 59 58 57 56 57 60 61 61 62 65 68 70 70 71 71 71 72 72 72 73 73 73 75 76 76 76 76 76 76 76 77 77 77 76 77 77 77 77 77 77 77 77 77 77 77 76 76 76 76 76 76 76 76 76 76 75 74 75 74 74 74 74 74 74 74 74 74 74 74 74 73 74
70 70 70 72 73 71 67 66 59 51 48 47 47 50 53 52 53 54 55 57 59 59 58 59 59 58 57 55 54 58 59 62 62 63 66 69 67 71 72 71 71 72 72 72 72 72 74 75 76 76 77 77 77 76 76 77 77 76 77 77 77 77 77 77 77 77 77 77 77 77 76 76 76 76 76 76 76 76 75 75 75 74 75 75 74 74 74 74 73 74 74 74 74 73 73 74 74
69 70 70 71 67 69 64 61 57 53 46 48 48 50 51 52 53 55 57 59 60 59 59 58 58 61 56 55 58 59 60 61 62 63 66 66 67 68 71 71 72 71 71 72 71 73 74 75 76 76 77 77 77 77 77 77 77 76 76 77 77 77 77 77 77 77 77 77 77 76 76 76 76 76 76 76 76 76 75 75 75 75 75 74 74 74 74 74 74 73 74 74 74 73 73 74 74
69 70 69 68 68 63 61 57 54 51 45 47 46 50 51 53 55 57 58 60 59 59 58 59 58 61 61 60 59 59 61 62 63 64 64 66 68 69 71 71 71 70 71 72 72 72 73 75 76 76 77 77 77 77 77 77 76 76 77 77 77 77 77 77 77 77 77 77 77 76 76 76 76 76 76 75 75 75 75 75 75 75 74 75 75 74 74 74 73 74 74 74 74 73 74 74 74
68 68 70 69 65 65 60 56 54 46 47 50 48 49 52 54 56 57 58 60 60 59 59 59 58 58 59 61 62 60 63 60 62 63 65 66 68 70 70 71 69 70 71 72 73 73 73 75 76 77 77 77 77 77 76 76 76 77 77 77 77 77 77 77 77 77 77 76 76 76 76 76 76 75 75 75 75 75 75 74 75 75 75 75 75 74 75 74 74 74 74 74 74 74 74 74 74
67 68 67 67 65 64 58 50 44 46 46 49 49 50 53 54 56 57 58 59 60 60 60 58 59 59 58 61 61 63 65 62 61 63 65 67 68 70 70 69 69 70 71 72 72 73 73 76 76 76 77 77 76 76 76 76 77 77 77 77 77 77 77 77 77 77 76 76 76 76 76 76 76 76 75 75 75 75 75 75 74 74 74 74 75 74 74 74 74 74 74 74 74 74 73 73 74
69 68 64 62 58 58 55 46 45 46 46 51 50 51 54 55 56 56 56 57 57 58 59 60 58 57 60 61 60 66 64 63 63 64 66 67 68 70 69 68 69 69 70 72 73 73 76 76 76 76 76 76 76 76 76 76 77 77 77 77 77 77 77 77 77 77 76 76 76 76 76 76 76 76 75 75 74 74 74 74 74 74 74 74 74 74 74 74 74 74 74 74 74 74 74 74 73
67 66 64 62 57 53 49 43 42 46 47 50 51 55 57 55 56 55 56 57 57 59 59 58 58 56 60 61 62 65 64 63 64 67 66 67 68 68 67 67 67 69 70 70 72 72 75 77 76 76 76 76 76 76 76 77 77 77 77 77 77 77 77 77 76 76 76 76 76 76 76 76 75 75 75 75 75 74 74 74 74 74 73 73 73 73 73 74 74 74 74 74 74 74 74 74 74
66 64 62 58 53 52 42 41 40 44 46 49 51 54 55 55 55 56 55 55 57 58 59 59 59 58 59 61 62 64 64 64 66 67 66 67 68 68 67 66 66 67 69 70 71 71 73 77 76 76 76 76 77 77 77 77 77 77 77 76 76 77 77 77 76 76 76 76 76 76 76 75 75 75 75 75 74 74 74 73 73 74 73 74 74 74 74 74 74 74 74 74 74 74 74 74 74
63 63 62 59 54 45 42 39 39 43 45 49 51 54 55 55 55 55 55 55 57 58 59 59 58 58 59 61 64 65 64 64 65 65 66 67 68 68 67 68 66 68 69 70 71 72 73 75 76 76 76 76 76 77 77 77 77 76 76 77 77 77 77 76 76 76 76 76 76 76 76 75 75 75 75 75 75 74 74 74 73 73 74 74 74 74 74 74 74 74 74 74 74 74 74 74 73
64 59 60 56 50 47 44 42 40 41 47 48 50 53 55 55 55 54 54 54 56 58 58 59 57 58 57 59 62 64 64 64 65 65 66 66 67 67 68 67 67 67 68 69 70 72 74 75 76 75 76 76 76 76 76 76 76 76 76 77 76 76 76 76 76 76 76 76 76 76 75 75 75 75 75 75 74 74 73 73 73 74 74 75 74 74 74 74 74 74 74 74 74 74 74 74 74
62 60 57 52 51 47 45 45 41 43 44 45 49 54 54 55 55 54 54 54 55 56 57 59 59 59 56 57 63 64 63 63 64 65 65 66 67 68 68 67 68 69 68 70 70 72 73 73 74 75 75 76 76 76 77 76 76 76 76 76 76 76 76 76 76 76 76 76 76 76 75 75 75 75 75 74 74 73 73 73 74 74 74 74 74 74 74 74 74 74 74 74 74 74 74 74 74
61 61 58 54 51 47 46 42 43 43 42 46 51 53 55 54 55 55 55 54 54 56 58 60 59 58 58 61 63 62 61 63 64 64 65 65 67 67 67 67 68 68 69 70 70 72 73 74 74 75 75 76 76 76 76 76 76 76 76 76 76 76 76 76 76 76 76 76 76 76 75 75 75 75 75 74 74 74 74 74 75 75 74 74 74 74 74 75 74 74 74 74 74 74 74 74 74
60 62 59 55 50 46 43 44 41 43 42 47 51 53 54 56 56 55 55 54 55 59 59 60 59 57 55 58 59 59 61 63 64 65 65 66 67 68 68 68 68 69 69 68 70 71 72 73 74 76 76 76 75 75 76 76 76 76 76 77 77 76 76 76 76 76 76 76 76 76 75 75 75 75 75 74 74 74 74 75 75 74 74 74 74 74 74 74 74 74 75 75 75 75 74 74 74
61 59 58 55 49 45 42 43 41 42 42 44 52 54 53 56 56 56 55 55 58 60 58 57 59 55 57 56 59 60 61 63 64 65 65 67 68 68 68 68 68 68 69 69 70 72 72 73 74 74 76 76 76 73 75 76 77 76 76 77 77 77 76 76 76 76 76 76 75 75 75 76 75 74 75 74 74 75 75 74 74 74 74 74 74 74 74 75 74 74 74 74 75 74 74 74 75
62 60 58 54 48 43 42 43 42 40 42 46 51 53 52 54 56 58 59 58 56 57 57 59 58 60 56 59 60 62 62 64 65 65 65 67 68 66 67 68 69 68 68 69 71 71 71 73 74 74 75 76 75 74 74 75 76 77 77 77 77 77 76 76 76 76 76 76 76 76 76 75 76 75 75 75 75 76 76 74 74 75 75 75 74 74 74 75 74 74 74 74 74 74 75 75 75
60 57 54 50 46 43 43 43 42 41 42 45 50 52 52 54 56 59 58 56 56 57 57 58 59 58 59 61 62 63 63 64 64 64 65 66 67 65 65 67 67 67 68 69 70 71 72 73 75 75 75 76 76 75 76 75 76 77 76 77 77 77 77 76 77 76 76 77 75 76 76 76 75 76 77 73 77 76 76 75 75 74 74 75 74 75 75 75 75 75 75 74 74 75 75 75 75
58 55 52 47 46 48 47 47 46 44 42 45 47 52 51 52 55 58 55 55 57 57 58 58 59 61 63 62 63 63 63 63 63 63 64 65 65 65 65 67 68 66 67 68 70 70 71 72 75 75 75 76 76 76 76 76 76 76 76 76 75 76 76 77 77 77 77 77 76 76 76 74 73 74 77 76 76 73 75 75 75 75 75 75 75 75 76 75 75 75 75 75 74 75 75 75 75
58 54 51 45 46 49 49 48 48 47 46 44 48 49 51 52 55 58 53 55 56 56 57 58 59 61 61 62 63 63 64 63 64 63 62 64 64 64 64 65 67 67 66 67 68 70 70 71 74 74 76 76 76 76 75 75 75 75 75 75 75 76 77 77 78 77 77 77 77 76 73 73 74 74 74 75 75 76 76 75 74 75 76 75 74 76 76 75 75 76 76 76 75 75 74 72 70
56 54 48 48 49 47 47 49 49 49 47 45 46 48 49 52 55 56 52 54 55 54 56 57 59 61 62 62 62 63 63 62 62 62 62 63 63 63 63 65 64 68 67 67 69 70 70 71 72 73 75 76 76 75 74 73 75 72 74 74 75 74 75 76 76 77 77 77 77 75 72 72 72 73 73 74 74 75 75 75 75 75 75 76 74 75 75 75 75 74 75 76 73 72 72 73 73
56 53 50 48 49 47 48 48 49 49 48 44 45 47 48 52 54 55 53 50 48 51 54 57 59 61 62 62 62 63 62 62 61 61 62 62 62 63 62 64 64 64 67 67 68 70 70 71 71 72 74 75 75 72 72 72 73 72 74 74 74 75 75 75 75 76 75 76 74 72 72 73 73 73 74 75 75 75 74 74 73 74 74 74 75 75 74 75 74 73 74 73 72 72 72 73 73
51 52 53 51 52 51 50 52 52 50 48 46 44 47 48 51 51 53 53 51 48 50 52 57 58 62 62 62 62 62 61 62 61 61 61 61 62 62 62 63 63 64 66 68 68 70 70 70 72 71 71 73 73 73 72 72 71 72 73 74 74 73 75 75 74 74 74 75 73 73 70 70 71 71 73 73 74 74 73 73 72 74 74 74 74 73 74 75 73 73 72 74 73 71 71 73 74
52 45 47 49 49 50 51 52 54 53 52 48 46 45 47 51 48 51 51 52 51 54 55 56 60 62 62 62 62 61 62 62 61 61 61 61 61 62 62 62 64 64 65 67 68 69 70 69 72 72 72 73 73 73 72 71 71 70 72 73 74 73 74 74 73 73 74 73 74 73 72 72 70 70 73 74 75 74 74 74 74 73 72 73 74 74 74 73 74 73 74 74 73 73 70 73 72
51 49 47 47 49 49 50 50 51 50 47 46 45 44 45 49 48 48 50 49 53 56 57 59 62 62 62 62 62 62 63 62 62 62 62 62 62 63 63 63 63 64 65 65 68 69 70 70 71 72 72 74 73 72 71 70 70 71 71 71 72 74 74 73 74 74 73 72 73 74 74 71 71 72 73 73 74 74 74 74 73 73 73 73 74 71 72 73 73 73 74 74 74 74 73 73 72
50 49 48 48 47 45 44 43 43 41 42 44 44 43 43 45 49 46 48 50 54 58 60 61 62 62 62 61 61 62 63 62 62 62 62 63 63 63 64 64 63 64 64 65 66 68 70 70 70 71 71 73 73 71 71 71 71 71 72 72 73 74 73 73 74 72 72 72 71 74 72 72 71 70 73 74 73 74 74 75 74 73 73 73 72 72 72 72 71 73 73 74 74 73 74 73 70
46 47 47 45 43 41 40 38 37 38 40 41 41 39 39 43 46 44 48 51 57 59 61 62 62 61 61 61 61 62 63 62 62 62 63 63 64 63 63 63 64 64 65 65 65 67 69 70 70 71 71 73 72 71 71 72 72 71 72 71 72 73 73 73 73 72 71 71 72 75 75 75 72 71 73 74 74 74 75 75 74 74 73 73 74 73 74 74 72 73 74 73 74 75 73 70 68
37 39 38 39 40 41 40 39 38 38 36 37 38 37 36 35 45 43 43 53 59 59 61 62 61 62 62 61 62 63 63 64 64 63 62 63 63 64 64 64 64 64 64 65 66 67 67 69 69 70 70 72 72 71 72 72 72 72 73 72 71 73 74 73 72 71 71 71 72 74 75 74 74 73 74 75 74 75 74 74 74 74 73 74 75 74 74 74 73 73 75 76 76 75 71 68 67
38 36 32 31 32 33 34 33 33 33 32 33 32 32 31 35 43 47 45 57 58 58 61 61 61 61 62 62 62 64 64 64 64 63 63 64 65 64 64 64 64 65 65 65 66 67 65 67 70 70 70 72 73 71 71 72 72 71 72 72 72 71 73 73 72 72 73 73 75 75 75 75 76 74 74 75 74 73 74 76 75 75 75 75 75 76 76 75 74 74 74 75 74 72 67 66 65
32 32 31 30 29 28 29 29 30 30 30 29 28 28 27 34 44 44 48 58 57 58 60 60 61 61 62 62 63 64 64 64 64 64 64 64 64 64 64 64 65 65 66 66 66 66 66 66 67 69 70 71 72 71 72 71 72 72 72 71 72 72 71 70 71 72 72 73 74 75 75 76 75 74 76 76 74 73 75 75 75 74 75 76 76 77 74 74 73 74 73 74 70 68 65 65 63
29 28 27 25 24 27 30 30 31 30 29 28 27 27 25 28 43 43 52 57 56 57 58 59 60 61 62 62 63 64 64 65 64 64 64 64 64 64 65 66 65 66 67 67 66 66 66 66 65 66 69 70 72 71 72 72 71 71 71 72 72 72 72 70 70 71 71 72 73 73 75 76 76 75 76 76 76 74 73 74 74 74 76 76 75 76 75 74 74 73 73 73 70 66 64 66 65
28 26 24 24 23 26 29 28 29 28 31 28 27 27 26 25 43 47 55 55 55 56 57 59 60 61 62 63 63 63 63 64 64 64 63 63 63 64 65 66 66 66 68 68 67 67 66 67 69 66 68 70 71 72 72 72 72 72 72 72 73 73 71 71 70 71 71 71 72 73 76 76 76 76 76 77 75 74 73 72 72 74 77 76 76 77 76 74 74 74 75 71 67 64 63 63 65
27 26 24 24 24 24 26 26 26 26 27 31 29 26 26 28 41 51 54 54 54 55 57 59 60 61 62 62 62 63 63 63 64 63 64 64 64 64 65 66 65 67 67 68 67 68 68 67 69 67 67 68 70 72 73 73 72 72 72 72 70 72 70 70 70 71 71 71 72 70 74 75 76 75 76 76 75 74 72 73 71 74 77 75 77 77 75 75 75 73 75 71 68 67 61 59 61
23 25 24 25 24 25 25 24 24 25 25 26 30 28 28 36 46 50 53 53 54 53 56 58 60 61 62 62 62 62 63 63 64 65 64 64 64 64 64 66 66 66 67 67 68 68 68 68 70 69 69 67 70 72 72 71 72 72 72 71 72 71 72 70 70 70 71 70 72 70 73 75 75 76 76 75 75 74 73 73 72 74 76 76 76 76 75 75 76 75 74 71 68 67 61 60 60
20 22 23 23 27 26 25 24 26 26 27 25 27 30 30 30 41 49 51 52 53 53 55 57 59 60 62 62 62 62 63 63 63 65 64 64 64 64 64 65 65 66 66 66 69 70 70 69 69 70 69 69 68 71 73 72 72 73 71 72 71 72 72 71 71 71 70 72 69 71 75 75 75 76 75 76 75 73 72 73 73 74 74 76 77 76 75 76 75 74 72 71 70 67 65 63 61
19 19 21 24 24 26 26 26 25 24 24 25 26 27 28 31 34 48 49 51 52 53 55 57 59 60 62 62 62 62 63 63 64 65 64 65 65 64 64 65 65 66 66 67 68 68 69 69 70 71 71 69 69 71 72 71 70 70 70 70 70 71 71 71 72 72 72 70 69 70 74 75 74 75 76 75 76 74 73 73 73 73 74 75 76 74 73 74 76 77 72 69 71 69 67 65 63
16 16 19 22 24 25 26 26 23 23 23 23 24 25 24 27 29 42 49 51 52 52 54 57 59 60 61 61 61 62 64 63 64 65 65 65 65 65 66 66 66 67 68 68 68 68 70 69 70 70 71 71 70 70 71 70 69 69 70 69 68 69 70 71 71 72 72 70 71 72 74 74 75 76 75 75 75 75 75 74 74 75 74 75 75 73 73 73 74 74 71 72 70 69 66 65 63
16 15 16 19 22 23 26 26 25 23 24 25 27 25 27 30 29 30 47 50 50 51 54 58 59 60 61 62 62 63 64 63 64 65 65 65 65 66 66 67 68 67 68 69 69 69 70 70 70 70 71 71 70 70 70 70 70 69 69 69 69 68 70 70 70 72 70 68 73 75 75 74 75 76 75 76 76 76 76 74 75 74 74 74 75 74 74 74 74 73 70 70 71 68 66 62 64
17 16 17 17 18 21 23 26 25 24 24 25 25 25 26 27 27 29 43 49 50 50 52 56 60 60 61 61 62 63 64 64 64 64 65 65 66 66 67 67 67 67 67 68 69 69 70 70 71 72 71 71 70 71 71 71 72 72 71 70 70 70 72 72 71 71 70 67 72 75 75 74 76 76 76 76 76 76 76 75 75 74 75 74 74 74 74 74 74 72 71 69 67 69 66 66 66
16 13 15 15 18 19 20 24 25 26 25 24 29 24 26 29 30 35 43 47 51 51 51 54 58 60 60 60 62 63 63 64 64 65 64 64 65 67 68 68 68 68 68 68 69 70 70 71 72 72 72 72 72 72 73 73 73 74 74 74 73 72 71 73 73 72 73 70 70 73 74 75 76 75 74 75 76 76 76 75 75 74 75 75 75 74 74 73 74 73 71 70 68 66 64 65 66
14 12 12 13 15 17 20 22 24 23 23 23 24 25 25 27 25 27 37 45 48 49 50 54 57 59 60 61 61 63 63 65 65 65 65 65 66 67 68 69 68 68 68 69 69 70 70 71 72 73 73 73 73 73 73 74 74 74 73 74 74 73 73 72 72 71 72 72 70 72 72 74 76 75 75 75 75 76 77 76 75 75 75 75 75 74 74 72 73 71 71 70 69 65 63 63 66
12 11 11 12 13 14 17 22 23 24 24 23 22 25 27 30 26 25 30 46 49 50 52 53 56 58 61 60 61 62 63 66 66 66 65 66 66 67 69 69 68 68 69 70 69 70 71 72 73 73 73 73 73 74 74 74 74 73 72 71 70 70 71 71 71 70 68 68 66 68 71 73 74 75 75 75 75 75 76 76 76 75 75 75 75 74 74 73 73 72 70 69 68 69 66 62 65
12 11 13 12 12 12 13 19 22 22 24 24 24 24 25 29 27 28 30 46 51 51 52 51 55 59 60 61 61 62 62 64 65 65 65 65 66 67 68 69 69 69 69 70 71 71 72 73 73 73 73 73 74 75 75 74 74 73 73 72 71 70 70 71 73 71 67 67 68 68 70 73 75 74 74 75 75 75 76 77 77 76 75 75 76 75 74 73 72 72 69 69 69 70 67 64 65
9 11 13 15 13 13 13 18 18 19 19 20 24 24 26 28 26 32 34 45 50 51 52 53 53 59 58 60 60 62 62 63 64 65 66 66 67 67 68 70 69 68 69 70 70 71 73 73 74 74 74 73 75 75 74 75 74 74 74 73 72 72 71 72 73 73 71 71 70 69 70 72 76 75 73 75 75 75 76 76 77 76 75 74 74 75 74 73 72 73 71 71 71 70 69 65 64
10 9 14 18 17 14 14 15 13 15 17 21 20 23 26 26 28 30 31 38 45 48 50 54 55 57 59 60 59 61 62 63 64 65 65 65 66 67 68 69 69 68 68 69 71 72 73 74 75 75 74 75 75 75 75 75 75 75 74 73 72 72 72 72 73 73 72 73 73 72 73 73 75 76 74 74 76 76 76 76 77 77 75 75 75 75 74 74 74 73 73 71 71 71 70 66 67
15 13 19 17 16 15 12 9 11 15 20 21 22 20 24 24 26 26 28 32 39 42 47 50 55 56 58 58 60 60 62 64 63 64 65 66 66 67 67 68 69 68 69 71 71 72 73 74 75 75 75 75 75 76 76 75 75 75 74 74 74 73 72 72 73 74 74 75 75 75 74 75 73 75 76 76 76 76 76 76 75 76 76 74 74 75 74 74 74 74 74 72 72 71 70 67 66
17 13 17 15 13 13 14 13 17 18 17 19 16 17 19 20 25 25 27 34 36 33 39 46 53 56 56 59 59 59 61 63 63 64 65 66 66 67 67 68 70 70 69 70 70 71 72 73 75 75 76 75 76 76 76 76 75 75 75 75 74 74 74 73 73 74 74 75 75 74 74 75 75 73 73 75 75 76 76 76 74 74 75 75 75 76 75 73 73 73 73 73 72 71 70 68 67
16 16 15 12 17 16 18 17 20 16 15 20 15 16 17 17 21 23 28 29 33 35 31 38 49 54 56 58 57 58 60 62 62 63 64 66 67 67 67 68 70 70 70 70 69 70 72 73 74 75 76 76 76 76 76 75 75 75 75 75 75 74 74 73 74 74 75 75 75 73 74 74 75 74 75 72 74 74 76 75 76 75 75 75 75 76 76 75 73 72 73 73 72 71 72 69 68
16 15 17 12 15 16 16 19 14 13 13 14 9 12 13 15 22 24 22 21 24 34 32 31 44 51 55 55 57 58 58 60 62 64 64 65 66 67 67 69 70 71 70 70 70 70 72 73 74 75 75 76 76 76 76 76 75 75 75 75 75 75 75 74 74 74 75 74 74 74 74 74 75 75 75 73 73 74 75 76 76 75 76 76 76 75 76 76 75 72 73 73 72 71 71 70 67
15 16 15 15 16 18 17 14 15 15 14 8 10 12 10 15 17 22 19 23 27 29 35 33 32 44 54 55 57 56 58 60 62 62 64 65 67 67 68 68 70 71 71 70 70 71 72 72 75 75 75 76 76 76 76 76 76 76 76 75 75 75 75 75 74 73 74 74 74 74 73 72 74 74 74 75 72 73 73 76 77 76 77 77 76 77 76 76 76 74 74 73 72 72 72 71 69
15 15 12 16 19 17 19 15 13 12 13 11 10 13 18 14 18 16 17 20 24 29 30 36 35 35 48 53 54 55 57 60 61 63 63 64 66 67 67 68 69 70 70 69 70 71 72 73 74 75 75 76 76 76 76 75 75 75 76 75 75 75 75 74 74 74 74 74 74 74 74 71 71 74 73 75 76 74 75 76 77 76 76 77 77 76 76 76 76 75 75 74 73 71 72 71 69
14 14 13 14 16 19 16 17 11 10 11 10 18 13 15 15 27 30 27 18 24 25 26 28 31 32 34 48 50 52 55 57 59 61 63 64 66 67 67 67 69 70 71 70 70 71 72 72 74 75 75 76 76 76 75 75 75 75 76 76 75 76 75 75 75 75 74 74 75 74 74 74 72 72 75 75 76 75 76 76 77 76 77 77 77 77 77 76 76 75 74 74 73 71 71 72 70
15 12 12 12 14 13 18 20 17 18 18 17 21 19 15 15 20 25 24 22 24 24 23 22 28 30 37 42 49 51 53 56 59 60 62 65 65 67 66 68 68 68 69 69 71 72 72 72 73 75 75 75 76 76 75 75 75 76 76 76 76 76 75 75 73 74 73 74 75 75 73 74 74 74 74 76 76 77 77 77 77 76 77 77 77 77 77 76 76 75 74 75 74 71 72 72 70
15 12 11 12 13 13 19 12 20 15 9 13 10 13 17 14 11 15 19 21 19 23 24 21 30 33 38 42 49 53 53 56 59 61 63 64 65 66 65 66 67 68 68 70 72 72 72 72 73 74 75 75 75 75 74 74 75 76 76 76 76 76 75 74 74 74 75 74 75 75 74 74 74 73 73 74 76 77 77 77 77 77 76 77 76 75 76 76 76 75 75 75 75 74 72 72 72
13 11 11 10 15 16 21 22 15 13 14 12 7 5 8 14 19 21 17 16 19 22 25 24 24 29 35 41 48 53 54 55 57 59 62 63 64 64 66 65 65 67 70 70 70 70 71 71 72 72 73 73 74 73 75 75 76 75 75 76 76 76 75 75 75 75 75 75 74 74 74 73 74 75 75 76 77 77 77 77 78 77 76 76 77 76 76 76 76 75 74 74 75 74 72 72 72
14 15 13 12 16 18 20 20 21 19 15 17 12 8 11 21 17 13 24 25 26 22 23 23 22 26 30 38 41 48 54 56 56 58 59 61 62 63 63 64 64 66 68 68 68 68 68 69 72 72 72 74 74 74 75 75 75 75 75 76 76 77 77 76 76 75 74 75 74 74 74 73 74 74 74 75 76 76 76 76 76 75 74 75 76 76 75 76 76 76 75 74 73 73 73 73 72
14 14 13 11 14 14 14 15 14 15 18 16 16 11 17 23 17 13 19 27 29 26 27 31 27 27 27 34 36 44 54 56 56 57 58 60 62 61 62 63 63 64 66 66 66 67 67 68 69 69 71 71 72 73 74 75 74 75 76 76 76 76 76 75 75 75 75 75 75 75 74 74 75 74 74 74 75 76 76 76 75 76 74 75 77 76 76 77 76 76 76 75 74 74 73 73 73
15 14 13 12 13 14 17 18 16 13 12 18 15 15 23 17 14 19 15 21 26 28 27 29 31 26 33 32 35 43 52 58 57 56 57 58 61 61 60 62 63 62 63 64 64 65 66 67 67 68 68 69 69 72 74 74 75 75 75 75 75 75 76 76 75 75 75 75 75 75 75 76 74 75 75 74 76 75 76 75 75 76 76 75 77 78 76 76 77 76 76 75 75 74 74 74 73